THORAD AGENA D DEB

Satellite information

Favourite Embed

Satellite Type and Status

DEBRISIN ORBIT

Key statistics

Satellite THORAD AGENA D DEB at a glance.

Uptime

20285

Days in orbit

Revolutions

≈ 14.3

Per day

Orbit

SSO

Sun Synchronous Orbit

Inclination

100.0

Latest

Satellite identification and parameters

Extended collection of information and parameters for THORAD AGENA D DEB.

Object identification

Identified? True

Debris? True

Object name: THORAD AGENA D DEB

International designator: 1970-025FH

Object number (NORAD): 4911

Object ID (CCSDS): 4911

Country: UNITED STATES OF AMERICA (US)

Current information (Y/N): Y

RCS size: SMALL

Orbital parameters

Period: 100.638 minutes

Inclination: 99.9866 deg

SMA: 7166.947 km

Apoapsis: 832.358 km

Periapsis: 745.267 km

RAAN: 134.2514 deg

Eccentricy: 0.00607592

Argument of periapsis: 272.048 deg

Mean anomaly: 87.3741 deg

Mean motion: 14.30874165 rev/day

Mean motion (dot): 0.00004415 rev/day2

B* drag term: 0.0016687175 1/REarth

Two-line elements (TLE)

Creation date: Oct. 21, 2025, 3:26 a.m.

Reference frame: TEME

Reference center: EARTH

Epoch: Oct. 20, 2025, 8:42 p.m. UTC

TLE line 0: 0 THORAD AGENA D DEB

TLE line 1: 1 04911U 70025FH 25293.86301270 .00004415 00000-0 16687-2 0 9991

TLE line 2: 2 04911 99.9866 134.2514 0060759 272.0480 87.3741 14.30874165837359

Live tracking on map

Real-time ground track for satellite THORAD AGENA D DEB.

In-orbit conjunctions

A list of the most updated potential collisions computed for object THORAD AGENA D DEB.

Target Orbit TCA Probability of collision Miss distance Type
FENGYUN 1C DEB SSO 2025-08-07 15:43:36 0.0002284853 129.0 (m) DEBRIS
DELTA 1 DEB SSO 2024-11-14 17:51:28 0.000344517 547.0 (m) DEBRIS
SL-16 R/B LEO 2024-06-30 17:02:09 0.0001692295 86.0 (m) ROCKET BODY

Associated space launch

Meteorological research and development satellite

THORAD AGENA D DEB was lifted into orbit during the mission ‘Thorad SLV-2G Agena D | Nimbus 4’, on board a Thorad SLV-2G Agena D space rocket.

The launch took place on April 8, 1970, 8:17 a.m. from Space Launch Complex 2E.

For more information about the launch, click the button.

Launch to space Thorad SLV-2G Agena D | Nimbus 4
Thorad SLV-2G Agena D | Nimbus 4

Agency: N/A

Status: Launch Successful

Launch date: April 8, 1970, 8:17 a.m. UTC

Rocket: Thorad SLV-2G Agena D

Launch pad: Space Launch Complex 2E

Location: Vandenberg SFB, CA, USA

...

Latest news about this satellite

There are no fresh news available about this satellite. Check back as we update our databases every day.


Newsletter sign-up

Weekly statistics, charts and insights to help you stay on top of the space industry.